Previsão horária em Juventino Rosas

Hoje, 24 Junho, Quinta-feira

Tempo Temperatura Precipitação Vento Pressão Humidade
00:00 +17°C° 0.2 mm 0 m/s 620 mmHg 88%
01:00 +17°C° 0.2 mm 0 m/s 620 mmHg 88%
02:00 +17°C° 0.2 mm 0 m/s 619 mmHg 88%
03:00 +17°C° 0.1 mm 0 m/s 619 mmHg 88%
04:00 +17°C° 0.1 mm 0 m/s 619 mmHg 88%
05:00 +19°C° 0.1 mm 1 m/s 619 mmHg 87%
06:00 +19°C° 0.1 mm 1 m/s 620 mmHg 83%
07:00 +20°C° 0.1 mm 1 m/s 620 mmHg 78%
08:00 +19°C° 0.1 mm 0 m/s 621 mmHg 73%
09:00 +22°C° 0 mm 1 m/s 621 mmHg 65%
10:00 +24°C° 0 mm 1 m/s 621 mmHg 57%
11:00 +26°C° 0 mm 1 m/s 621 mmHg 49%
12:00 +27°C° 0 mm 1 m/s 620 mmHg 46%
13:00 +28°C° 0 mm 2 m/s 620 mmHg 43%
14:00 +28°C° 0 mm 2 m/s 619 mmHg 40%
15:00 +27°C° 0 mm 2 m/s 619 mmHg 43%
16:00 +27°C° 0 mm 3 m/s 618 mmHg 47%
17:00 +26°C° 0 mm 3 m/s 618 mmHg 50%
18:00 +24°C° 0.1 mm 2 m/s 618 mmHg 59%
19:00 +21°C° 0.1 mm 2 m/s 618 mmHg 67%
20:00 +21°C° 0.1 mm 1 m/s 618 mmHg 75%
21:00 +20°C° 0.2 mm 1 m/s 618 mmHg 79%
22:00 +19°C° 0.2 mm 1 m/s 618 mmHg 83%
23:00 +17°C° 0.2 mm 0 m/s 618 mmHg 87%

Amanhã, 25 Junho, Sexta-feira

Tempo Temperatura Precipitação Vento Pressão Humidade
00:00 +16°C° 0.2 mm 0 m/s 618 mmHg 89%
01:00 +16°C° 0.2 mm 0 m/s 618 mmHg 90%
02:00 +16°C° 0.2 mm 0 m/s 617 mmHg 91%
03:00 +15°C° 0.1 mm 0 m/s 618 mmHg 92%
04:00 +15°C° 0.1 mm 0 m/s 618 mmHg 92%
05:00 +15°C° 0.1 mm 0 m/s 618 mmHg 93%
06:00 +19°C° 0 mm 1 m/s 618 mmHg 86%
07:00 +20°C° 0 mm 1 m/s 619 mmHg 79%
08:00 +20°C° 0 mm 2 m/s 620 mmHg 72%
09:00 +23°C° 0 mm 2 m/s 620 mmHg 63%
10:00 +25°C° 0 mm 2 m/s 620 mmHg 55%
11:00 +27°C° 0 mm 2 m/s 620 mmHg 47%
12:00 +27°C° 0 mm 2 m/s 619 mmHg 44%
13:00 +28°C° 0 mm 2 m/s 619 mmHg 42%
14:00 +28°C° 0 mm 3 m/s 618 mmHg 39%
15:00 +27°C° 0.2 mm 3 m/s 617 mmHg 44%
16:00 +26°C° 0.2 mm 2 m/s 617 mmHg 49%
17:00 +25°C° 0.2 mm 2 m/s 616 mmHg 53%
18:00 +23°C° 1.1 mm 2 m/s 616 mmHg 63%
19:00 +20°C° 1.1 mm 3 m/s 617 mmHg 73%
20:00 +18°C° 1.1 mm 3 m/s 617 mmHg 83%
21:00 +18°C° 0.8 mm 2 m/s 618 mmHg 84%
22:00 +19°C° 0.8 mm 1 m/s 618 mmHg 85%
23:00 +16°C° 0.8 mm 0 m/s 618 mmHg 86%

Depois de amanhã, 26 Junho, Sábado

Tempo Temperatura Precipitação Vento Pressão Humidade
00:00 +16°C° 0 mm 0 m/s 617 mmHg 87%
01:00 +16°C° 0 mm 0 m/s 617 mmHg 87%
02:00 +16°C° 0 mm 0 m/s 617 mmHg 87%
03:00 +16°C° 0 mm 1 m/s 617 mmHg 88%
04:00 +16°C° 0 mm 1 m/s 617 mmHg 89%
05:00 +16°C° 0 mm 1 m/s 616 mmHg 89%
06:00 +18°C° 0 mm 2 m/s 617 mmHg 82%
07:00 +19°C° 0 mm 2 m/s 618 mmHg 74%
08:00 +21°C° 0 mm 3 m/s 618 mmHg 67%
09:00 +24°C° 0 mm 2 m/s 618 mmHg 59%
10:00 +26°C° 0 mm 2 m/s 618 mmHg 51%
11:00 +28°C° 0 mm 2 m/s 619 mmHg 43%
12:00 +28°C° 0 mm 2 m/s 618 mmHg 41%
13:00 +28°C° 0 mm 2 m/s 617 mmHg 40%
14:00 +28°C° 0 mm 2 m/s 617 mmHg 38%
15:00 +27°C° 0 mm 2 m/s 616 mmHg 43%
16:00 +26°C° 0 mm 2 m/s 616 mmHg 48%
17:00 +25°C° 0 mm 2 m/s 616 mmHg 52%
18:00 +24°C° 0 mm 2 m/s 616 mmHg 58%
19:00 +22°C° 0 mm 1 m/s 616 mmHg 63%
20:00 +21°C° 0 mm 1 m/s 617 mmHg 68%
21:00 +21°C° 0 mm 1 m/s 616 mmHg 72%
22:00 +20°C° 0 mm 1 m/s 616 mmHg 76%
23:00 +19°C° 0 mm 1 m/s 616 mmHg 80%

27 Junho, Domingo

Tempo Temperatura Precipitação Vento Pressão Humidade
00:00 +19°C° 0 mm 1 m/s 616 mmHg 82%
01:00 +18°C° 0 mm 1 m/s 616 mmHg 84%
02:00 +18°C° 0 mm 1 m/s 615 mmHg 86%
03:00 +18°C° 0.1 mm 1 m/s 615 mmHg 88%
04:00 +16°C° 0.1 mm 1 m/s 616 mmHg 89%
05:00 +16°C° 0.1 mm 1 m/s 616 mmHg 91%
06:00 +19°C° 0 mm 1 m/s 616 mmHg 82%
07:00 +21°C° 0 mm 1 m/s 617 mmHg 74%
08:00 +21°C° 0 mm 2 m/s 617 mmHg 65%
09:00 +24°C° 0.1 mm 2 m/s 617 mmHg 58%
10:00 +26°C° 0.1 mm 2 m/s 618 mmHg 51%
11:00 +27°C° 0.1 mm 2 m/s 618 mmHg 44%
12:00 +27°C° 0 mm 3 m/s 617 mmHg 44%
13:00 +27°C° 0 mm 3 m/s 617 mmHg 43%
14:00 +27°C° 0 mm 3 m/s 616 mmHg 43%
15:00 +26°C° 0.4 mm 3 m/s 616 mmHg 53%
16:00 +24°C° 0.4 mm 3 m/s 615 mmHg 62%
17:00 +21°C° 0.4 mm 3 m/s 615 mmHg 72%
18:00 +20°C° 2.2 mm 2 m/s 615 mmHg 79%
19:00 +20°C° 2.2 mm 1 m/s 615 mmHg 86%
20:00 +18°C° 2.2 mm 1 m/s 616 mmHg 93%
21:00 +19°C° 0.8 mm 1 m/s 616 mmHg 91%
22:00 +19°C° 0.8 mm 1 m/s 616 mmHg 90%
23:00 +19°C° 0.8 mm 1 m/s 616 mmHg 88%

28 Junho, Segunda-feira

Tempo Temperatura Precipitação Vento Pressão Humidade
00:00 +19°C° 0.7 mm 1 m/s 616 mmHg 88%
01:00 +19°C° 0.7 mm 1 m/s 616 mmHg 88%
02:00 +19°C° 0.7 mm 1 m/s 616 mmHg 88%
03:00 +19°C° 0.1 mm 1 m/s 616 mmHg 88%
04:00 +19°C° 0.1 mm 1 m/s 616 mmHg 87%
05:00 +19°C° 0.1 mm 1 m/s 615 mmHg 87%
06:00 +19°C° 0.2 mm 1 m/s 616 mmHg 84%
07:00 +19°C° 0.2 mm 1 m/s 616 mmHg 81%
08:00 +20°C° 0.2 mm 1 m/s 617 mmHg 78%
09:00 +20°C° 0.5 mm 1 m/s 617 mmHg 76%
10:00 +21°C° 0.5 mm 1 m/s 617 mmHg 75%
11:00 +20°C° 0.5 mm 2 m/s 617 mmHg 73%
12:00 +20°C° 0.5 mm 2 m/s 617 mmHg 73%
13:00 +20°C° 0.5 mm 2 m/s 617 mmHg 74%
14:00 +20°C° 0.5 mm 3 m/s 616 mmHg 74%
15:00 +19°C° 0.1 mm 2 m/s 616 mmHg 76%
16:00 +19°C° 0.1 mm 2 m/s 616 mmHg 78%
17:00 +20°C° 0.1 mm 1 m/s 616 mmHg 80%
18:00 +18°C° 0.1 mm 2 m/s 616 mmHg 82%
19:00 +18°C° 0.1 mm 2 m/s 617 mmHg 85%
20:00 +17°C° 0.1 mm 2 m/s 617 mmHg 87%
21:00 +17°C° 0 mm 2 m/s 617 mmHg 87%
22:00 +18°C° 0 mm 1 m/s 617 mmHg 87%
23:00 +18°C° 0 mm 1 m/s 617 mmHg 87%

29 Junho, Terça-feira

Tempo Temperatura Precipitação Vento Pressão Humidade
00:00 +18°C° 0 mm 1 m/s 617 mmHg 88%
01:00 +16°C° 0 mm 1 m/s 616 mmHg 89%
02:00 +16°C° 0 mm 1 m/s 616 mmHg 89%
03:00 +16°C° 0 mm 1 m/s 616 mmHg 90%
04:00 +16°C° 0 mm 2 m/s 616 mmHg 90%
05:00 +16°C° 0 mm 2 m/s 616 mmHg 90%
06:00 +17°C° 0 mm 2 m/s 617 mmHg 88%
07:00 +17°C° 0 mm 2 m/s 617 mmHg 85%
08:00 +18°C° 0 mm 2 m/s 618 mmHg 82%
09:00 +19°C° 0.1 mm 2 m/s 618 mmHg 78%
10:00 +19°C° 0.1 mm 2 m/s 618 mmHg 74%
11:00 +20°C° 0.1 mm 2 m/s 618 mmHg 70%
12:00 +20°C° 0.3 mm 2 m/s 618 mmHg 70%
13:00 +20°C° 0.3 mm 2 m/s 618 mmHg 70%
14:00 +20°C° 0.3 mm 2 m/s 617 mmHg 70%
15:00 +20°C° 0.2 mm 2 m/s 617 mmHg 73%
16:00 +19°C° 0.2 mm 2 m/s 617 mmHg 76%
17:00 +19°C° 0.2 mm 2 m/s 617 mmHg 79%
18:00 +18°C° 0.1 mm 2 m/s 617 mmHg 81%
19:00 +18°C° 0.1 mm 2 m/s 617 mmHg 83%
20:00 +18°C° 0.1 mm 2 m/s 618 mmHg 85%
21:00 +18°C° 0.1 mm 2 m/s 618 mmHg 86%
22:00 +18°C° 0.1 mm 1 m/s 618 mmHg 87%
23:00 +18°C° 0.1 mm 1 m/s 618 mmHg 88%
Mostrar mais

Necessitamos do seu Consentimento

A Meteoprog e os seus Fornecedores de Serviços podem armazenar e aceder a dados pessoais como cookies, identificadores do dispositivo ou outras tecnologias semelhantes existentes no seu dispositivo e processar estes dados para personalizar conteúdos e anúncios, assim como funcionalidades nas redes sociais e análise de tráfego.

  • Armazenar e/ou aceder a informações no seu dispositivo

    Os cookies, identificadores do dispositivo ou outras informações podem ser armazenados ou acedidos no seu dispositivo, para os fins acima indicados.

  • Anúncios e conteúdos personalizados, medição de anúncios e conteúdos, dados sobre o público-alvo e desenvolvimento de produtos

    Os anúncios e os conteúdos podem ser personalizados com base num perfil. Podem ser adicionados dados adicionais para uma maior personalização dos anúncios e dos conteúdos. A eficácia dos anúncios e dos conteúdos pode ser medida. Podem ser obtidas informações sobre o público que visualizou os anúncios e os conteúdos. Estes dados podem ser usados para desenvolver ou melhorar sistemas, softwares ou a experiência do utilizador.

Ao clicar em "Eu concordo”, permitirá o uso de cookies, identificadores do dispositivo e web beacons mencionados ou outras tecnologias semelhantes. As configurações do navegador do seu dispositivo podem ser alteradas.

Para certos fins, podem ser invocados interesses legítimos ao invés de consentimento. Pode ler mais informação sobre este assunto na nossa Política de Privacidade e Cookies.